GEFSSE_con_prob3kmehi_006.txt.gz
EHI
0 0 0 0 0 0 0 0 0 0 0 0 0 0 0 0 0 0 0 0 0 0 0 0 0 0 0 0 0 0 0 0 0 0 0 0 0 0 0 0 0 0 0
0 0 0 0 0 0 0 0 0 0 0 0 0 0 0 0 0 0 0 0 0 0 0 0 0 0 0 0 0 0 0 0 0 0 0 0 0 0 1 2 1 0 0
0 0 0 0 0 0 0 0 0 0 0 0 0 0 0 0 0 0 0 0 0 0 0 0 0 0 0 0 0 0 0 0 0 0 0 0 0 1 6 13 11 5 1
0 0 0 0 0 0 0 0 0 0 0 0 0 0 0 0 0 0 0 0 0 0 0 0 0 0 0 0 0 0 0 0 0 0 0 0 0 1 8 22 24 13 4
0 0 0 0 0 0 0 0 0 0 0 0 0 0 0 0 0 0 0 0 0 0 0 0 0 0 0 0 0 0 0 0 0 0 0 0 0 0 4 14 21 15 7
0 0 0 0 0 0 0 0 0 0 0 0 0 0 0 0 0 0 0 0 0 0 0 0 0 0 0 0 0 0 0 0 0 0 0 0 0 1 1 4 7 7 5
0 0 0 0 0 0 0 0 0 0 0 0 0 0 0 0 0 0 0 0 0 0 0 0 0 0 0 0 0 0 0 0 0 0 0 0 1 3 4 3 3 5 5
0 0 0 0 0 0 0 0 0 0 0 0 0 0 0 0 0 0 0 0 0 0 0 0 0 0 0 0 0 0 0 0 0 0 0 0 1 7 12 10 11 14 13
0 0 0 0 0 0 0 0 0 0 0 1 2 1 0 0 0 0 0 0 0 0 0 0 0 0 0 0 0 0 0 0 0 0 0 0 1 11 24 27 24 23 20
0 0 0 0 0 0 0 0 0 0 0 2 4 4 2 0 0 0 0 0 0 0 0 0 0 0 0 0 0 0 0 0 0 0 0 0 0 10 28 34 27 19 17
0 0 0 0 0 0 0 0 0 0 0 1 2 3 2 1 0 0 0 0 0 0 0 0 0 0 0 0 0 0 0 0 0 0 0 0 0 6 17 22 15 10 10
0 0 0 0 0 0 0 0 0 0 0 0 0 1 1 0 0 0 0 0 0 0 0 0 0 0 0 0 0 0 0 0 0 0 0 0 0 2 5 6 4 4 6
0 0 0 0 0 0 0 0 0 0 0 0 0 0 0 0 0 0 0 0 0 0 0 0 0 0 0 0 0 0 0 0 0 0 0 0 0 1 2 2 1 1 3
0 0 0 0 0 0 0 0 0 0 0 0 0 0 0 0 0 0 0 0 0 0 0 0 0 0 0 0 0 0 0 0 0 0 0 0 0 1 3 2 1 1 1
0 0 0 0 0 0 0 0 0 0 0 0 0 0 0 0 0 0 0 0 0 0 0 0 0 0 0 0 0 0 0 0 0 0 0 0 0 1 3 2 1 0 0
0 0 0 0 0 0 0 0 0 0 0 0 0 0 0 0 0 0 0 0 0 0 0 0 0 0 0 0 0 0 0 0 0 0 0 0 0 0 1 0 0 0 0
0 0 0 0 0 0 0 0 0 0 0 0 0 0 0 0 0 0 0 0 0 0 0 0 0 0 0 0 0 0 0 0 0 0 0 0 0 0 0 0 0 0 0
3 4 4 4 2 1 0 0 0 0 0 0 0 0 0 0 0 0 0 0 0 0 0 0 0 0 0 0 0 0 0 0 0 0 0 0 0 0 0 0 0 1 1
7 10 12 13 13 9 4 1 0 0 0 0 0 0 0 0 0 0 0 0 0 0 0 0 0 0 0 0 0 0 0 0 0 0 0 0 0 0 0 0 0 0 0
13 17 24 28 30 29 19 7 1 0 0 0 0 0 0 0 0 0 0 0 0 0 0 0 0 0 0 0 0 0 0 0 0 0 0 0 0 0 0 0 0 0 0
34 38 47 54 50 45 34 15 3 1 1 2 1 0 0 0 0 0 0 0 0 0 0 0 0 0 0 0 0 0 0 0 0 0 0 0 0 0 0 0 0 0 0
67 70 78 80 69 52 36 21 10 7 6 4 2 0 0 0 0 0 0 0 0 0 0 0 0 0 0 0 0 0 0 0 0 0 0 0 0 0 0 0 0 0 0
86 89 92 90 75 50 31 21 16 12 7 3 1 0 0 0 0 0 0 0 0 0 0 0 0 0 0 0 0 0 0 0 0 0 0 0 0 0 0 0 0 0 0
78 78 76 70 55 33 19 13 10 6 3 1 0 0 0 0 0 0 0 0 0 0 0 0 0 0 0 0 0 0 0 0 0 0 0 0 0 0 0 0 0 0 0
45 45 41 33 22 12 5 3 1 0 0 0 0 0 0 0 0 0 0 0 0 0 0 0 0 0 0 0 0 0 0 0 0 0 0 0 0 0 0 0 0 0 0
19 18 15 10 5 1 0 0 0 0 0 0 0 0 0 0 0 0 0 0 0 0 0 0 0 0 0 0 0 0 0 0 0 0 0 0 0 0 0 0 0 0 0

GEFSSE_con_prob3kmehi_012.txt.gz
EHI
0 0 0 0 0 0 0 0 0 0 0 0 0 0 0 0 0 0 0 0 0 0 0 0 0 0 0 0 0 0 0 0 0 0 0 0 0 0 0 0 0 0 0
0 0 0 0 0 0 0 0 0 0 0 0 0 0 0 0 0 0 0 0 0 0 0 0 0 0 0 0 0 0 0 0 0 0 0 0 0 0 0 0 0 0 0
0 0 0 0 0 0 0 0 0 0 0 0 0 0 0 0 0 0 0 0 0 0 0 0 0 0 0 0 0 0 0 0 0 0 0 0 0 0 0 0 0 0 0
0 0 0 0 0 0 0 0 0 0 0 0 0 0 0 0 0 0 0 0 0 0 0 0 0 0 0 0 0 0 0 0 0 0 0 0 0 0 0 0 0 0 0
0 0 0 0 0 0 0 0 0 0 0 0 0 0 0 0 0 0 0 0 0 0 0 0 0 0 0 0 0 0 0 0 0 0 0 0 0 0 0 0 0 0 0
0 0 0 0 0 0 0 0 0 0 0 0 0 0 0 0 0 0 0 0 0 0 0 0 0 0 0 0 0 0 0 0 0 0 0 0 0 0 0 0 0 0 0
0 0 0 0 0 0 0 0 0 0 0 0 0 0 0 0 0 0 0 0 0 0 0 0 0 0 0 0 0 0 0 0 0 0 0 0 0 0 0 0 0 0 0
0 0 0 0 0 0 0 0 0 0 0 0 0 0 0 0 0 0 0 0 0 0 0 0 0 0 0 0 0 0 0 0 0 0 0 0 0 0 0 0 0 0 0
0 0 0 0 0 0 0 0 0 0 0 0 0 0 0 0 0 0 0 0 0 0 0 0 0 0 0 0 0 0 0 0 0 0 0 0 0 0 0 0 0 0 0
0 0 0 0 0 0 0 0 0 0 0 0 0 0 0 0 0 0 0 0 0 0 0 0 0 0 0 0 0 0 0 0 0 0 0 0 0 0 0 0 0 0 0
0 0 0 0 0 0 0 0 0 0 0 0 0 0 0 0 0 0 0 0 0 0 0 0 0 0 0 0 0 0 0 0 0 0 0 0 0 0 0 0 0 0 0
0 0 0 0 0 0 0 0 0 0 0 0 0 0 0 0 0 0 0 0 0 0 0 0 0 0 0 0 0 0 0 0 0 0 0 0 0 0 0 0 0 0 0
0 0 0 0 0 0 0 0 0 0 0 0 0 0 0 0 0 0 0 0 0 0 0 0 0 0 0 0 0 0 0 0 0 0 0 0 0 0 0 0 0 0 0
0 0 0 0 0 0 0 0 0 0 0 0 0 0 0 0 0 0 0 0 0 0 0 0 0 0 0 0 0 0 0 0 0 0 0 0 0 0 0 0 0 0 0
0 0 0 0 0 0 0 0 0 0 0 0 0 0 0 0 0 0 0 0 0 0 0 0 0 0 0 0 0 0 0 0 0 0 0 0 0 0 0 0 0 0 0
0 0 0 0 0 0 0 0 0 0 0 0 0 0 0 0 0 0 0 0 0 0 0 0 0 0 0 0 0 0 0 0 0 0 0 0 0 0 0 0 0 0 0
1 0 0 0 0 0 0 0 0 0 0 0 0 0 0 0 0 0 0 0 0 0 0 0 0 0 0 0 0 0 0 0 0 0 0 0 0 0 0 0 0 0 0
3 1 0 0 0 0 0 0 0 0 0 0 0 0 0 0 0 0 0 0 0 0 0 0 0 0 0 0 0 0 0 0 0 0 0 0 0 0 0 0 0 0 0
4 2 0 0 0 0 0 0 0 0 0 0 0 0 0 0 0 0 0 0 0 0 0 0 0 0 0 0 0 0 0 0 0 0 0 0 0 0 0 0 0 0 0
3 1 0 0 0 1 3 5 6 4 2 0 0 0 0 0 0 0 0 0 0 0 0 0 0 0 0 0 0 0 0 0 0 0 0 0 0 0 0 0 0 0 0
3 4 4 5 8 15 22 25 24 16 7 1 0 0 0 0 0 0 0 0 0 0 0 0 0 0 0 0 0 0 0 0 0 0 0 0 0 0 0 0 0 0 0
11 13 15 16 24 38 48 49 43 30 13 3 0 0 0 0 0 0 0 0 0 0 0 0 0 0 0 0 0 0 0 0 0 0 0 0 0 0 0 0 0 0 0
31 32 32 30 34 46 55 56 48 32 14 3 0 0 0 0 0 0 0 0 0 0 0 0 0 0 0 0 0 0 0 0 0 0 0 0 0 0 0 0 0 0 0
41 45 43 35 31 32 38 42 35 20 8 2 0 0 0 0 0 0 0 0 0 0 0 0 0 0 0 0 0 0 0 0 0 0 0 0 0 0 0 0 0 0 0
27 34 35 26 19 16 18 20 15 8 2 0 0 0 0 0 0 0 0 0 0 0 0 0 0 0 0 0 0 0 0 0 0 0 0 0 0 0 0 0 0 0 0
11 17 21 16 10 8 8 7 4 2 0 0 0 0 0 0 0 0 0 0 0 0 0 0 0 0 0 0 0 0 0 0 0 0 0 0 0 0 0 0 0 0 0

GEFSSE_con_prob3kmehi_018.txt.gz
EHI
0 0 0 0 0 0 0 0 0 1 3 5 4 2 1 0 0 0 0 0 0 0 0 0 0 0 0 0 0 0 0 0 0 0 0 0 0 0 0 0 0 0 0
0 0 0 0 0 0 0 0 1 2 5 7 6 3 1 0 0 0 0 0 0 0 0 0 0 0 0 0 0 0 0 0 0 0 0 0 0 0 0 0 0 0 0
0 0 0 0 0 0 0 1 1 3 5 6 6 4 1 0 0 0 0 0 0 0 0 0 0 0 0 0 0 0 0 0 0 0 0 0 0 0 0 0 0 0 0
0 0 0 0 0 0 1 2 3 3 3 3 3 2 1 0 0 0 0 0 0 0 0 0 0 0 0 0 0 0 0 0 0 0 0 0 0 0 0 0 0 0 0
0 0 0 0 0 0 1 2 2 2 1 1 1 1 1 0 0 0 0 0 0 0 0 0 0 0 0 0 0 0 0 0 0 0 0 0 0 0 0 0 0 0 0
0 0 0 0 0 0 0 1 1 1 0 0 0 0 0 0 0 0 0 0 0 0 0 0 0 0 0 0 0 0 0 0 0 0 0 0 2 4 2 0 0 0 0
0 0 0 0 0 0 0 0 0 0 0 0 0 0 0 0 0 0 0 0 0 0 0 0 0 0 0 0 0 0 0 0 0 0 0 0 5 10 5 0 0 0 0
0 0 0 0 0 0 0 0 0 0 0 0 0 0 0 0 0 0 0 0 0 0 0 0 0 0 0 0 0 0 0 0 0 0 0 2 8 10 5 0 0 0 0
0 0 0 0 0 0 0 0 0 0 0 0 0 0 0 0 0 0 0 0 0 0 0 0 0 0 0 0 0 0 0 0 0 0 0 6 13 10 2 0 0 0 0
0 0 0 0 0 0 0 0 0 0 0 0 0 0 0 0 0 0 0 0 0 0 0 0 0 0 0 0 0 0 0 0 0 0 0 8 16 9 1 0 0 0 0
1 0 0 0 0 0 0 0 0 0 0 0 0 0 0 0 0 1 1 1 1 0 0 0 0 0 0 0 0 0 0 0 0 0 1 7 10 5 0 0 0 0 0
3 2 0 0 0 0 0 0 0 0 0 0 0 0 0 0 0 0 1 1 1 0 0 0 0 0 0 0 0 1 0 0 0 0 4 8 5 1 0 0 0 0 0
4 2 0 0 0 0 0 0 0 0 0 0 0 0 0 0 0 0 0 0 0 0 0 0 0 0 0 0 0 0 0 0 0 0 5 9 5 0 0 0 0 0 0
1 1 0 0 0 0 0 0 0 0 0 0 0 0 0 0 0 0 0 0 0 0 0 0 0 0 0 0 0 0 0 0 0 0 4 7 4 0 0 0 0 0 0
1 0 0 0 0 0 0 0 0 0 0 0 0 0 1 1 1 1 0 0 0 0 0 0 0 0 0 0 0 0 0 0 0 0 2 4 4 1 0 0 0 0 0
2 1 1 1 2 3 2 0 0 0 0 0 2 5 6 4 3 2 1 0 0 0 0 0 0 0 0 0 0 0 0 0 0 0 0 3 4 2 0 0 0 0 0
5 5 5 4 6 10 11 7 4 2 2 3 6 13 15 10 6 4 2 0 0 0 0 0 0 0 0 0 1 1 1 1 1 1 1 2 3 3 1 0 0 0 0
9 11 13 13 14 21 27 23 15 9 9 10 13 19 22 17 11 9 6 2 0 0 0 0 0 0 0 0 1 2 4 6 7 5 3 3 3 3 2 1 1 0 0
13 18 28 34 38 43 50 48 35 24 20 19 22 29 35 30 23 20 14 6 3 3 3 3 4 4 3 2 1 2 4 8 11 7 4 4 4 3 2 2 3 2 0
14 24 42 60 69 73 76 74 60 41 30 27 34 49 56 48 38 33 26 15 11 11 8 7 9 9 6 2 1 1 2 4 6 4 2 2 2 1 1 2 4 4 3
11 23 44 64 81 89 93 90 80 62 48 44 52 63 65 56 46 40 32 24 21 19 14 10 10 7 4 1 0 1 1 1 1 0 0 0 0 0 0 1 5 9 11
21 29 42 57 72 86 93 95 91 82 72 67 68 67 61 52 45 38 33 27 24 20 14 9 7 4 1 0 0 0 0 0 0 0 0 0 0 0 0 0 5 11 13
47 51 54 59 69 79 89 94 96 93 85 78 73 64 52 42 35 31 26 22 18 14 9 5 3 1 0 0 0 0 0 0 0 0 0 0 0 0 0 0 3 7 8
57 60 63 67 74 81 88 93 95 92 85 75 66 54 40 27 21 16 13 10 8 5 3 1 0 0 0 0 0 0 0 0 0 0 0 0 0 0 0 0 0 2 3
35 41 51 62 73 82 87 90 90 86 78 68 57 45 29 17 8 4 3 2 1 1 0 0 0 0 0 0 0 0 0 0 0 0 0 0 0 0 0 0 0 0 1
16 24 35 50 66 77 84 86 84 79 73 64 53 39 25 13 4 1 0 0 0 0 0 0 0 0 0 0 0 0 0 0 0 0 0 0 0 0 1 1 1 0 0

GEFSSE_con_prob3kmehi_024.txt.gz
EHI
1 11 20 13 2 0 0 0 0 0 0 0 0 0 0 0 0 0 0 0 0 0 0 0 0 0 0 0 0 0 0 0 0 0 0 0 0 0 0 0 0 0 0
3 11 24 19 5 0 0 0 0 0 0 0 0 0 0 0 0 0 0 0 0 0 0 0 0 0 0 0 0 0 0 0 0 0 0 0 0 0 0 0 0 0 0
2 7 18 22 11 2 0 0 0 0 0 0 0 0 0 0 0 0 0 0 0 0 0 0 0 0 0 0 0 0 0 0 0 0 0 0 0 0 0 0 0 0 0
1 3 12 21 15 4 0 0 0 0 0 0 0 0 0 0 0 0 0 0 0 0 0 0 0 0 0 0 0 0 0 0 0 0 0 0 2 3 2 0 0 0 0
0 3 13 21 16 5 0 0 0 0 0 0 0 0 0 0 0 0 0 0 0 0 0 0 0 0 0 0 0 0 0 0 0 0 0 0 8 17 14 5 1 0 0
1 3 11 20 16 5 0 0 0 0 0 0 0 0 0 0 0 0 0 0 0 0 0 0 0 0 0 0 0 0 0 0 0 0 0 2 20 44 42 21 7 2 0
6 5 9 17 15 5 1 0 0 0 0 0 0 0 0 0 0 0 0 0 0 0 0 0 0 0 0 0 0 0 0 0 0 0 0 8 37 70 70 46 26 13 6
20 15 11 12 11 4 1 0 0 0 0 0 0 0 0 0 0 0 0 0 0 0 0 0 0 0 0 0 0 0 0 0 0 0 0 15 53 85 86 69 52 33 19
41 30 14 6 5 2 0 0 0 0 0 0 0 0 0 0 0 0 0 0 0 0 0 0 0 1 1 2 3 4 3 1 0 0 0 20 63 92 92 81 67 47 28
61 46 19 2 1 0 0 0 0 0 0 0 0 0 0 0 1 1 2 4 6 6 7 6 6 7 8 10 14 18 15 7 1 0 2 26 70 95 93 83 67 45 31
78 63 31 10 3 0 1 2 1 0 0 0 1 2 2 1 1 7 18 29 35 35 34 33 28 23 18 14 24 35 28 11 3 0 10 41 80 97 93 80 59 38 27
90 80 58 37 19 5 5 9 5 1 2 2 3 9 10 5 1 14 44 69 75 68 57 51 44 30 17 9 21 36 26 10 5 5 24 64 92 98 94 80 57 32 20
96 92 83 72 51 21 15 21 12 5 9 7 7 18 25 16 5 19 58 89 93 79 56 44 42 32 15 7 15 26 22 11 7 11 40 78 97 99 96 86 66 38 19
97 96 95 93 80 52 38 40 27 15 19 24 28 37 43 40 23 26 61 88 90 80 61 47 49 46 28 16 15 21 24 18 11 19 50 83 97 99 98 93 81 58 37
98 97 97 99 95 81 72 71 56 40 40 50 62 68 68 67 55 52 73 91 88 80 72 66 64 61 48 30 18 16 22 26 23 32 60 88 99 100 100 98 92 78 66
96 96 98 100 99 97 95 93 83 70 66 73 85 91 89 88 86 85 91 97 91 80 74 72 66 61 53 39 23 15 21 30 36 50 74 92 99 100 100 98 94 88 84
91 94 97 98 99 100 100 99 92 80 73 81 92 97 98 98 99 100 100 99 95 88 82 77 68 60 54 44 30 18 17 28 42 62 82 95 99 99 99 98 93 88 86
90 95 98 97 98 99 100 98 91 77 72 82 95 99 100 100 100 100 100 99 98 96 92 86 80 72 63 53 37 20 13 18 33 55 78 92 97 98 98 97 93 86 82
95 98 99 98 98 99 100 98 91 83 80 86 94 98 100 100 100 100 100 99 99 98 96 93 91 87 78 65 45 26 16 14 18 34 57 72 82 89 93 94 93 89 86
98 99 100 100 100 100 100 99 95 91 90 91 93 96 99 100 100 100 100 100 100 99 98 97 96 94 88 73 53 33 21 15 11 20 36 48 56 64 71 79 87 90 90
98 99 100 100 100 100 100 100 99 97 96 94 93 94 97 99 99 99 99 99 98 99 98 98 97 96 90 78 58 37 20 11 7 19 40 50 45 41 40 48 64 76 81
93 94 96 98 99 100 100 100 100 100 99 96 94 95 96 97 96 95 93 92 92 94 95 96 95 92 84 72 54 33 16 6 4 16 42 57 52 40 27 23 32 48 60
69 73 80 88 95 99 100 100 100 100 100 98 97 97 98 96 92 89 85 83 84 86 87 87 84 77 66 52 38 24 12 5 2 9 24 39 46 42 26 14 13 24 35
34 38 51 67 82 93 98 99 100 100 100 100 99 99 98 94 88 83 80 78 78 78 75 69 65 59 45 31 23 16 9 4 2 2 7 15 24 25 17 8 6 11 17
9 13 23 39 60 79 91 95 98 99 99 99 99 99 97 93 86 79 75 74 71 68 62 55 50 44 31 20 14 9 5 3 1 0 1 3 6 7 5 2 2 4 7
3 4 11 24 45 68 83 90 96 98 98 98 98 98 97 94 86 76 71 70 67 62 56 50 45 35 25 16 10 4 2 1 0 0 0 0 0 1 1 1 1 1 2

GEFSSE_con_prob3kmehi_030.txt.gz
EHI
0 8 20 19 8 1 0 0 0 0 0 0 0 0 0 0 0 0 0 0 0 0 0 0 0 0 0 0 0 0 0 0 0 0 0 0 0 0 0 0 0 0 0
0 7 22 25 15 6 2 0 0 0 0 0 0 0 0 0 0 0 0 0 0 0 0 0 0 0 0 0 0 0 0 0 0 0 0 0 0 0 0 0 0 0 0
1 6 23 38 34 20 8 2 0 0 0 0 0 0 0 0 0 0 0 0 0 0 0 0 0 0 0 0 0 0 0 0 0 0 0 0 0 0 0 0 0 0 0
4 7 26 52 57 41 21 8 2 0 0 0 0 0 0 0 0 0 0 0 0 0 0 0 0 0 0 0 0 0 0 0 0 0 0 0 0 0 0 0 0 0 0
5 9 32 64 75 62 40 19 6 1 0 0 0 0 0 0 0 0 0 0 0 0 0 0 0 0 0 0 0 0 0 0 0 0 0 0 0 1 1 1 0 0 0
7 13 38 70 84 77 61 36 15 4 0 0 0 0 0 0 0 0 0 0 0 0 0 0 0 0 0 0 0 0 0 0 0 0 0 0 0 5 11 12 7 4 2
16 26 49 76 87 85 74 53 28 10 2 0 0 0 0 0 0 0 0 0 0 0 0 0 0 0 0 0 0 0 0 0 0 0 0 0 0 12 32 40 33 23 16
26 37 58 78 86 86 79 63 40 17 5 1 1 0 0 0 0 0 0 0 0 0 0 0 0 0 0 0 0 0 0 0 0 0 0 0 0 15 47 67 65 55 47
19 31 48 64 74 76 72 62 43 20 6 3 2 1 0 0 0 1 1 1 0 0 0 0 0 0 0 0 0 0 0 0 0 0 0 0 0 13 45 75 85 82 77
8 16 29 42 51 55 54 51 39 20 6 3 3 2 1 0 0 1 2 1 0 0 0 0 1 2 1 1 2 2 0 0 0 0 0 0 0 9 38 74 92 94 93
10 13 20 26 29 32 34 33 27 15 6 3 2 2 1 0 0 0 1 1 0 1 3 6 9 8 4 3 4 3 1 0 0 0 0 0 1 10 36 73 95 98 97
15 15 17 20 20 21 20 15 10 6 3 1 1 1 1 0 0 0 0 0 0 1 5 12 17 14 6 3 3 2 1 0 0 0 0 2 7 17 40 72 94 99 97
22 16 14 16 16 13 8 4 2 1 1 0 0 0 0 0 0 0 0 0 0 3 8 15 19 15 6 2 1 1 0 0 0 0 0 4 14 28 48 74 93 99 97
36 23 13 12 10 5 1 0 1 0 0 0 0 0 0 0 0 0 0 0 3 11 20 25 22 14 5 1 0 0 0 0 0 0 0 6 19 37 56 76 91 97 97
59 46 28 17 9 5 5 4 3 2 1 0 0 0 1 2 2 2 1 2 8 22 36 40 30 15 5 1 1 0 0 0 0 0 0 5 20 42 62 78 89 94 95
77 70 57 40 26 23 27 26 24 22 17 11 8 8 9 14 18 15 9 10 20 36 49 49 37 20 9 7 6 3 1 0 0 0 0 4 18 41 62 77 87 91 93
83 83 79 68 58 55 58 61 61 57 46 35 30 29 33 42 48 44 36 36 45 57 63 57 43 28 19 16 13 7 4 2 0 0 1 4 13 30 51 69 81 88 89
84 85 85 82 79 78 79 81 82 75 63 49 43 47 56 67 74 75 72 71 74 78 76 65 49 35 27 20 13 8 5 2 1 0 1 3 9 18 32 51 67 78 82
83 81 80 79 80 82 83 83 81 72 59 46 38 40 49 63 76 86 90 90 88 84 77 65 50 37 27 17 9 5 3 2 1 0 0 2 6 10 18 30 44 54 59
73 72 72 72 74 76 77 78 77 69 58 48 37 26 27 40 59 74 82 85 83 77 69 59 47 35 25 15 8 4 2 2 1 1 0 1 2 4 8 14 22 27 32
59 60 62 64 65 66 66 64 63 60 56 53 45 29 20 25 39 51 60 69 73 69 62 54 44 34 25 17 10 5 3 2 2 2 1 0 0 0 2 4 8 11 13
40 40 43 45 45 44 42 39 37 37 40 43 40 30 20 20 26 33 42 54 62 61 57 51 45 36 27 18 10 6 3 1 1 1 1 0 0 0 0 0 2 3 4
19 18 19 21 21 19 17 16 16 17 21 25 24 19 15 16 22 28 35 43 49 51 51 49 46 39 26 14 8 5 3 1 0 0 0 0 0 0 0 0 0 0 0
7 7 9 11 10 7 6 7 8 9 11 11 11 10 8 10 17 22 27 33 38 41 41 39 37 31 20 10 5 4 3 1 0 0 0 0 0 0 0 0 0 0 0
6 8 12 13 10 7 5 5 4 5 5 5 6 5 4 4 7 11 17 23 29 29 26 22 19 16 10 5 3 3 3 2 1 0 0 0 0 0 0 0 0 0 0
7 10 13 14 10 7 6 4 3 2 1 2 2 2 1 1 2 5 11 18 22 21 16 11 7 5 3 1 1 2 3 3 2 1 0 0 0 0 0 0 0 0 0

GEFSSE_con_prob3kmehi_036.txt.gz
EHI
0 1 2 2 2 1 0 1 2 2 3 4 4 2 1 0 0 0 0 0 0 0 0 0 0 0 0 0 0 0 0 0 0 0 0 0 0 0 0 0 0 0 0
0 0 1 2 3 2 1 0 1 1 2 3 3 1 0 0 0 0 0 0 0 0 0 0 0 0 0 0 0 0 0 0 0 0 0 0 0 0 0 0 0 0 0
0 0 1 3 5 5 3 1 1 2 3 3 2 1 1 0 0 0 0 0 0 0 0 0 0 0 0 0 0 0 0 0 0 0 0 0 0 0 0 0 0 0 0
0 0 2 5 9 10 8 6 4 4 4 4 3 3 2 1 0 0 0 0 0 0 0 0 0 0 0 0 0 0 0 0 0 0 0 0 0 0 0 0 0 0 0
0 0 4 11 14 15 14 12 9 6 4 3 3 3 3 2 0 0 0 0 0 0 0 0 0 0 0 0 0 0 0 0 0 0 0 0 0 0 0 0 1 0 0
0 0 7 17 22 21 20 19 17 12 8 5 4 3 2 1 0 0 0 0 0 0 0 0 0 0 0 0 0 0 0 0 0 0 0 0 0 0 0 0 0 0 1
1 0 9 25 31 29 28 28 27 23 16 9 5 2 1 0 0 0 0 0 0 0 0 0 0 0 0 0 0 0 0 0 0 0 0 0 0 0 0 0 0 1 2
4 3 10 25 35 35 34 34 33 30 22 12 5 1 0 0 0 0 0 0 0 0 0 0 0 0 0 0 0 0 0 0 0 0 0 0 0 0 0 0 0 2 3
10 10 12 19 29 35 35 36 34 30 22 12 5 1 0 0 0 0 0 0 0 0 0 0 0 0 0 0 0 0 0 0 0 0 0 0 0 0 0 0 1 4 7
14 15 16 18 24 29 33 37 37 30 22 14 6 1 0 0 0 0 0 0 0 0 0 0 0 0 0 0 0 0 0 0 0 0 0 0 0 0 0 0 1 6 10
11 13 16 20 24 28 34 39 39 32 24 16 9 3 0 0 0 0 0 0 0 0 0 0 0 0 0 0 0 0 0 0 0 0 0 0 1 1 1 1 1 6 11
6 7 11 16 24 31 36 37 36 31 23 18 12 5 1 0 0 0 0 0 0 0 0 0 0 0 1 1 1 1 1 1 1 0 0 1 2 3 3 1 1 5 9
2 3 6 11 20 28 31 29 28 25 21 16 11 6 2 0 0 0 0 0 0 0 0 0 0 1 2 3 4 4 3 2 1 0 0 1 2 3 3 1 0 2 5
0 1 3 7 15 21 22 18 16 18 17 13 10 7 5 3 1 1 1 0 0 0 0 1 1 2 4 5 5 5 3 1 1 0 0 0 1 1 1 1 0 0 1
1 1 2 6 11 13 12 9 8 10 11 10 8 8 10 8 4 3 2 1 1 1 2 3 4 5 5 6 5 5 3 1 0 0 0 0 0 0 0 0 0 0 0
5 4 4 5 7 8 7 5 4 4 5 5 4 5 8 9 6 3 3 2 3 4 6 6 6 7 7 7 6 5 3 1 1 0 0 0 1 1 0 0 0 0 0
14 11 7 6 6 5 5 4 3 2 2 2 2 3 4 4 3 2 1 2 6 11 12 9 7 7 9 10 8 6 4 3 2 1 0 1 2 2 1 0 1 1 0
25 22 18 14 11 8 7 6 7 7 6 6 6 5 4 3 3 4 3 5 12 19 19 15 12 12 13 13 11 8 7 5 3 1 0 2 2 2 1 1 1 1 1
37 35 32 27 23 20 18 17 18 19 17 16 15 13 9 7 9 11 10 11 19 27 27 24 23 21 19 16 12 9 8 5 2 0 0 1 2 2 1 0 1 1 0
39 38 36 32 29 29 30 29 28 25 22 20 19 16 12 10 12 16 17 17 25 33 34 34 33 27 23 18 12 9 7 5 3 1 1 1 1 1 0 0 1 1 1
28 27 24 22 21 24 27 26 23 19 15 14 13 11 8 7 8 11 14 18 25 33 36 38 36 31 25 20 15 10 6 5 4 3 2 2 1 1 0 0 1 2 2
15 13 10 9 10 12 13 12 9 7 6 6 5 3 2 2 2 4 6 11 16 21 25 29 30 28 25 22 17 11 5 3 2 2 2 2 2 2 1 0 1 1 2
7 5 3 3 4 4 5 4 2 1 1 2 1 0 0 0 0 0 1 3 6 9 12 15 19 21 20 18 14 9 4 2 1 0 1 1 1 2 1 0 0 1 2
2 1 1 2 3 3 3 3 1 0 0 0 0 0 0 0 0 0 0 1 1 2 4 7 11 14 13 12 11 7 4 2 1 0 0 0 0 1 1 0 0 0 1
0 0 1 2 3 3 3 2 1 0 0 0 0 0 0 0 0 0 0 0 0 0 1 3 6 9 10 10 10 8 5 3 1 0 0 0 0 0 0 0 0 0 0
0 1 2 2 2 3 3 1 0 0 0 0 0 0 0 0 0 0 0 0 0 0 0 1 3 5 7 9 9 9 6 4 3 1 0 0 0 0 0 0 0 0 0

GEFSSE_con_prob3kmehi_042.txt.gz
EHI
0 2 2 1 0 0 0 0 0 1 1 1 1 1 0 0 0 0 0 0 0 0 0 0 0 0 0 0 0 0 0 0 0 0 0 0 0 0 0 0 0 0 0
1 2 3 1 0 0 0 0 0 1 2 2 1 0 0 0 0 0 0 0 0 0 0 0 0 0 0 0 0 0 0 0 0 0 0 0 0 0 0 0 0 0 0
1 2 2 1 0 0 1 3 4 5 6 5 1 0 0 0 0 0 0 0 0 0 0 0 0 0 0 0 0 0 0 0 0 0 0 0 0 0 0 0 0 0 0
0 1 1 0 0 0 2 5 7 8 8 6 2 0 0 0 0 0 0 0 0 0 0 0 0 0 0 0 0 0 0 0 0 0 0 0 0 0 0 0 0 0 0
0 1 2 1 0 0 1 3 5 6 7 5 2 0 0 0 0 0 0 0 0 0 0 0 0 0 0 0 0 0 0 0 0 0 0 0 0 0 0 0 0 0 0
0 1 2 1 0 0 0 0 1 3 4 3 1 0 0 0 0 0 0 0 0 0 0 0 0 0 0 0 0 0 0 0 0 0 0 0 0 0 0 0 0 0 0
0 0 1 2 1 0 0 0 1 2 2 2 2 1 0 0 0 0 0 0 0 0 0 0 0 0 0 0 0 0 0 0 0 0 0 0 1 2 1 0 0 0 0
0 0 1 1 1 0 0 1 1 1 1 3 4 2 0 0 0 0 0 0 0 0 0 0 0 0 0 0 0 0 0 0 0 0 0 2 6 6 2 0 0 0 0
0 0 0 0 0 0 1 2 2 1 1 2 3 3 2 2 1 0 0 0 0 0 0 0 0 0 0 0 0 0 0 0 0 0 0 9 19 14 3 0 0 0 0
0 0 0 0 0 0 2 3 3 2 2 2 3 3 4 3 2 1 1 2 1 0 0 0 0 0 0 0 1 1 0 0 0 0 1 17 32 21 4 1 0 0 0
0 0 0 0 0 0 1 1 1 2 1 1 2 2 2 2 1 1 3 4 3 0 0 0 0 0 0 1 3 3 2 0 0 0 6 26 35 20 4 1 0 0 0
0 0 0 0 0 0 0 0 0 1 2 2 1 1 0 0 0 0 3 5 3 1 0 0 0 0 0 1 4 5 3 1 0 0 12 31 31 13 2 0 0 0 0
0 0 0 1 2 1 1 1 1 2 4 5 4 3 2 1 1 0 2 3 3 2 1 2 2 1 0 1 2 3 2 1 1 1 13 28 24 7 0 0 0 0 0
0 0 1 3 4 5 4 4 3 4 6 7 7 5 3 3 2 2 4 5 4 4 6 6 5 4 2 1 1 1 1 1 2 3 12 21 17 5 0 0 0 0 0
0 1 4 6 9 12 13 11 8 6 6 7 6 3 2 1 2 4 7 7 7 10 14 15 12 11 10 6 3 2 2 2 2 5 10 15 12 4 1 0 0 1 1
1 3 7 9 14 20 21 17 12 8 6 5 3 2 1 1 3 6 7 8 11 18 25 26 21 20 19 14 8 6 6 6 6 7 9 10 8 4 2 1 1 2 3
3 5 8 10 16 23 23 18 13 7 4 3 3 3 2 2 4 7 8 9 16 26 37 38 33 33 33 28 21 16 15 15 13 12 12 11 8 6 4 3 2 3 4
4 6 8 9 14 21 23 19 14 9 6 5 4 3 2 1 2 6 8 10 17 29 40 44 46 50 51 49 43 32 27 25 21 18 17 14 12 10 8 6 4 5 6
6 8 11 12 14 18 20 18 15 13 11 8 5 4 2 0 1 3 5 8 13 23 34 39 49 60 65 63 55 43 37 33 27 21 19 18 16 13 9 6 5 6 6
15 15 17 18 17 17 16 15 15 12 9 6 5 3 1 0 0 1 3 6 10 16 26 35 44 56 66 66 56 46 41 36 29 23 20 20 18 15 9 5 5 6 6
33 28 24 20 17 13 10 11 11 7 4 3 2 2 1 0 1 1 2 4 6 10 19 29 38 44 54 61 58 49 41 35 28 24 22 21 19 16 12 6 6 8 8
47 38 27 19 14 8 4 5 6 5 3 2 2 2 1 1 2 2 2 2 2 5 9 18 28 32 38 49 55 52 44 38 32 28 25 22 20 18 12 6 7 11 10
45 37 25 18 14 8 3 3 5 6 5 4 4 3 2 3 3 2 1 0 0 1 3 8 15 19 24 35 46 51 48 45 43 38 29 21 19 17 11 6 6 8 8
33 28 21 18 18 16 11 10 10 9 7 4 4 4 4 3 3 2 1 0 0 0 0 2 4 8 13 21 32 41 43 44 45 41 32 21 16 14 10 7 7 5 4
20 19 18 21 28 28 24 20 16 11 7 5 5 4 3 2 1 1 0 0 0 0 0 0 1 4 7 10 16 25 32 35 34 32 28 23 16 11 9 11 12 8 4
12 13 16 26 37 39 34 28 20 13 9 7 6 4 2 1 0 0 0 0 0 0 0 0 0 2 4 5 8 16 25 29 26 23 23 23 19 11 9 14 16 12 7

GEFSSE_con_prob3kmehi_048.txt.gz
EHI
13 22 32 22 5 1 0 0 0 0 0 0 0 0 0 0 0 0 0 0 0 0 0 0 0 0 0 0 0 0 0 0 0 0 0 0 0 0 0 0 0 0 0
14 21 31 24 7 1 0 0 0 0 0 0 0 0 0 0 0 0 0 0 0 0 0 0 0 0 0 0 0 0 0 0 0 0 0 0 0 0 0 0 0 0 0
10 14 22 21 10 2 0 0 0 0 0 0 0 0 0 0 0 0 0 0 0 0 0 0 0 0 0 0 0 0 0 0 0 0 0 0 0 0 0 0 0 0 0
4 6 13 16 10 3 0 0 0 0 0 0 0 0 0 0 0 0 0 0 0 0 0 0 0 0 0 0 0 0 0 0 0 0 0 0 0 1 0 0 0 0 0
1 3 11 14 8 1 0 0 0 0 0 0 0 0 0 0 0 0 0 0 0 0 0 0 0 0 0 0 0 0 0 0 0 0 0 1 4 6 4 1 0 0 0
3 5 10 11 5 0 0 0 0 0 0 0 0 0 0 0 0 0 0 0 0 0 0 0 0 0 0 0 0 0 0 0 0 0 0 4 14 20 14 4 1 0 0
12 10 8 8 4 0 0 0 0 0 0 0 0 0 0 0 0 0 0 0 0 0 0 0 0 0 0 0 0 0 0 0 0 0 0 9 31 44 34 16 5 1 0
25 15 8 6 3 0 0 0 0 0 0 0 0 0 0 0 0 0 0 0 0 0 0 0 0 0 1 2 2 2 2 1 0 0 0 15 48 69 59 35 16 6 2
33 20 7 4 2 0 0 0 0 0 0 0 0 0 0 0 0 2 4 5 4 2 2 2 2 3 5 7 8 8 5 3 1 0 0 20 60 84 78 56 31 14 7
34 20 7 3 1 0 1 1 0 1 1 0 0 0 0 0 4 12 18 19 15 11 11 12 10 11 15 18 19 16 10 4 1 0 2 25 66 90 85 68 46 26 14
26 18 12 10 5 1 6 9 7 4 5 4 4 7 7 4 6 20 30 33 33 32 32 32 29 25 24 24 27 26 17 5 1 0 7 35 73 92 87 73 54 34 20
20 17 21 25 14 4 15 26 18 13 21 18 16 25 27 15 7 15 32 46 52 50 46 43 38 29 21 15 23 35 28 10 1 2 17 53 83 93 88 74 56 35 22
17 15 26 37 26 12 24 36 26 25 42 41 37 47 50 34 15 13 34 56 62 55 47 42 35 26 15 7 14 34 36 18 8 11 32 67 89 91 85 71 51 31 19
19 17 29 47 42 25 31 39 32 31 47 55 59 63 64 56 38 31 47 63 63 55 49 44 41 35 24 14 13 25 33 26 19 27 48 73 86 83 76 62 44 26 17
25 26 41 61 62 49 46 47 40 38 46 59 66 68 70 70 61 54 62 69 63 55 52 51 50 49 43 29 20 19 23 24 25 37 58 73 75 70 63 53 40 27 19
37 43 60 76 81 75 65 55 49 47 54 62 66 68 71 73 71 66 65 66 62 55 52 50 49 52 52 43 31 23 19 19 23 36 55 66 66 62 58 51 41 32 25
56 66 75 82 88 89 77 63 54 54 60 68 70 70 70 70 67 61 55 53 52 51 49 45 44 48 50 46 40 32 24 20 22 32 46 56 57 56 55 51 44 37 32
80 85 85 83 88 91 85 72 58 54 60 65 66 68 68 62 55 50 45 42 40 40 38 35 36 40 42 41 38 34 31 27 25 29 40 46 47 47 48 47 46 43 42
93 93 90 88 90 91 87 74 58 52 52 49 49 57 58 47 40 37 34 30 29 30 29 26 27 29 30 29 25 26 30 32 31 31 34 38 37 37 37 40 45 50 51
94 93 92 92 89 85 78 65 53 45 38 29 33 43 42 31 25 23 20 17 16 18 20 20 18 18 19 19 16 18 25 31 35 33 30 30 29 28 28 32 42 49 52
90 91 90 87 81 74 67 56 48 40 26 18 23 31 27 18 14 11 9 9 7 7 9 10 10 10 12 14 14 14 18 26 32 33 32 31 29 25 23 27 36 43 46
88 88 85 80 73 66 59 50 44 35 21 14 19 25 21 14 10 8 7 5 4 3 2 3 4 4 5 8 10 11 12 17 22 26 31 34 33 31 27 27 33 38 39
85 83 80 77 71 63 54 45 40 34 24 19 22 27 25 17 10 9 7 5 4 3 1 1 2 2 1 2 5 6 8 10 11 15 20 26 32 35 32 28 28 31 32
76 75 75 76 73 64 56 50 48 44 39 37 37 38 34 23 13 10 10 9 7 4 2 2 2 1 0 0 1 2 4 4 4 6 8 14 24 32 33 29 25 27 29
61 63 67 73 74 70 66 63 62 61 59 59 57 51 42 30 18 11 13 15 13 8 4 3 2 1 0 0 0 0 1 1 1 1 2 7 14 24 31 31 28 29 31
53 56 61 69 75 74 72 69 69 71 72 71 66 57 45 34 23 14 14 20 17 10 6 3 1 0 0 0 0 0 0 0 0 0 0 3 8 16 27 34 34 34 34

GEFSSE_con_prob3kmehi_054.txt.gz
EHI
0 10 23 22 11 4 1 0 0 0 0 0 0 0 0 0 0 0 0 0 0 0 0 0 0 0 0 0 0 0 0 0 0 0 0 0 0 0 1 0 0 0 0
8 18 36 38 23 9 2 0 0 0 0 0 0 0 0 0 0 0 0 0 0 0 0 0 0 0 0 0 0 0 0 0 0 0 0 0 0 1 1 1 0 0 0
29 36 51 56 41 19 4 0 0 0 0 0 0 0 0 0 0 0 0 0 0 0 0 0 0 0 0 0 0 0 0 0 0 0 0 0 0 1 1 1 0 0 0
49 53 62 69 58 33 12 3 0 0 0 0 0 0 0 0 0 0 0 0 0 0 0 0 0 0 0 0 0 0 0 0 0 0 0 0 0 0 1 1 0 0 0
51 56 69 78 71 50 27 12 5 2 0 0 0 0 0 0 0 0 0 0 0 0 0 0 0 0 0 0 0 0 0 0 0 0 0 0 0 0 0 0 0 0 0
42 52 71 85 81 65 44 27 15 8 3 0 0 0 0 0 0 0 0 0 0 0 0 0 0 0 0 0 0 0 0 0 0 0 0 0 0 0 1 1 0 0 0
42 51 72 87 86 72 55 39 27 16 6 1 0 0 0 0 0 0 0 0 0 0 0 0 0 0 0 0 0 0 0 0 0 0 0 0 0 2 5 6 4 2 1
41 47 63 76 77 68 56 43 31 18 7 1 0 0 0 0 0 0 0 0 0 0 0 0 0 0 0 0 0 0 0 0 0 0 0 0 1 6 13 16 14 9 5
31 37 48 54 54 50 44 36 25 13 4 1 0 0 0 0 0 0 0 0 0 0 0 0 0 0 0 0 0 0 0 0 0 0 0 0 1 8 22 31 28 21 15
23 27 34 35 32 29 26 22 15 6 2 0 0 0 0 0 0 0 0 0 0 0 1 2 2 1 0 0 0 0 0 0 0 0 0 0 1 7 24 40 43 35 29
21 22 26 27 23 17 13 10 5 2 0 0 0 0 0 0 0 0 0 1 1 2 3 6 7 5 3 1 0 0 0 0 0 0 0 0 0 5 20 42 53 47 40
21 20 21 23 21 15 9 5 2 0 0 0 1 1 0 0 0 0 0 2 3 3 3 6 9 8 7 6 5 3 2 1 0 0 0 0 0 3 18 42 58 56 48
25 21 18 19 18 12 7 4 2 0 0 0 1 1 0 0 0 0 1 1 3 2 2 3 5 7 8 10 9 6 4 2 1 1 0 0 1 5 18 41 58 57 50
35 25 16 13 12 9 5 4 2 2 2 3 2 2 2 2 1 0 0 0 1 1 1 3 3 4 5 7 6 4 3 2 3 3 2 1 3 7 19 38 50 49 42
47 35 23 17 13 10 8 8 7 6 8 9 8 7 8 7 3 1 0 0 0 1 2 3 3 2 2 2 1 1 2 2 4 5 3 2 4 8 18 30 38 35 29
57 50 41 35 29 25 25 26 22 16 15 15 15 17 18 16 9 4 1 0 1 1 1 1 1 1 1 0 0 1 2 2 3 4 3 3 4 7 15 23 26 23 19
61 61 58 55 50 47 49 49 43 33 27 25 24 25 29 26 16 8 4 2 1 2 1 0 0 0 0 0 0 0 1 1 1 3 2 2 3 7 13 18 19 16 14
60 62 65 64 62 61 63 61 55 47 40 34 29 28 32 29 19 11 7 5 3 2 2 0 0 0 0 0 0 0 0 0 1 1 1 1 2 6 10 13 14 13 12
56 58 61 63 62 62 61 57 52 44 36 30 26 25 25 23 16 11 8 5 4 2 1 0 0 0 0 0 0 0 0 0 0 0 0 1 1 4 6 7 9 11 9
50 49 51 53 53 51 49 45 40 31 21 17 16 15 15 13 10 7 5 3 2 1 0 0 0 0 0 0 0 0 0 0 0 0 0 0 1 2 2 3 4 6 6
39 37 36 35 34 33 31 29 25 18 10 7 7 6 7 6 5 5 3 1 0 0 0 0 0 0 0 0 0 0 0 0 0 0 0 0 0 0 0 0 1 2 2
27 24 21 18 18 16 14 12 11 8 5 3 3 2 2 2 3 3 2 1 0 0 0 0 0 0 0 0 0 0 0 0 0 0 0 0 0 0 0 0 0 1 1
16 14 12 10 8 6 4 4 5 6 5 4 3 1 0 1 1 2 1 0 0 0 0 0 0 0 0 0 0 0 0 0 0 0 0 0 0 0 0 0 0 0 0
9 9 8 5 3 2 2 3 5 7 6 5 2 0 0 0 1 1 1 0 0 0 0 0 0 0 0 0 0 0 0 0 0 0 0 0 0 0 0 0 0 0 0
4 5 4 2 1 0 1 3 5 5 4 2 1 0 0 0 0 1 1 1 0 0 0 0 0 0 0 0 0 0 0 0 0 0 0 0 0 0 0 0 0 0 0
2 2 2 1 0 0 1 2 2 1 1 0 0 0 0 0 0 1 2 2 1 0 0 0 0 0 0 0 0 0 0 0 0 0 0 0 0 0 0 0 0 0 0

GEFSSE_con_prob3kmehi_060.txt.gz
EHI
0 2 4 4 1 1 4 12 21 28 30 28 26 23 14 5 0 0 0 0 0 0 0 0 0 0 0 0 0 0 0 0 0 0 0 0 0 0 0 0 0 0 0
3 3 4 4 3 1 3 8 14 19 21 19 17 13 8 3 0 0 0 0 0 0 0 0 0 0 0 0 0 0 0 0 0 0 0 0 0 0 0 0 0 0 0
12 7 4 6 6 4 3 4 6 8 9 8 6 4 2 1 0 0 0 0 0 0 0 0 0 0 0 0 0 0 0 0 0 0 0 0 0 0 0 0 0 0 0
19 10 7 12 13 10 8 7 4 4 4 3 1 0 0 0 0 0 0 0 0 0 0 0 0 0 0 0 0 0 0 0 0 0 0 0 0 0 0 0 0 0 0
20 12 13 25 27 22 19 15 9 5 3 2 1 0 0 0 0 0 0 0 0 0 0 0 0 0 0 0 0 0 0 0 0 0 0 0 0 0 0 0 0 0 0
22 17 25 42 44 39 36 29 20 11 6 3 2 1 0 0 0 0 0 0 0 0 0 0 0 0 0 0 0 0 0 0 0 0 0 0 0 0 0 0 0 0 0
34 31 41 57 60 54 51 43 31 22 14 8 4 2 0 0 0 0 0 0 0 0 0 0 0 0 0 0 0 0 0 0 0 0 0 0 0 0 0 0 0 0 0
51 51 58 68 70 66 60 51 40 30 21 12 5 2 1 0 0 0 0 0 0 0 0 0 0 0 0 0 0 0 0 0 0 0 0 0 0 0 0 0 0 0 0
57 62 69 71 71 68 62 54 45 34 22 11 5 2 1 0 0 0 0 0 0 0 0 0 0 0 0 0 0 0 0 0 0 0 0 0 0 0 0 0 0 0 0
50 58 66 67 65 61 57 52 44 31 17 8 4 2 1 0 0 0 0 0 0 0 0 0 0 0 0 0 0 0 0 0 0 0 0 0 0 0 0 0 0 0 0
42 47 53 57 57 54 50 43 33 21 11 6 3 2 1 1 1 0 0 0 0 0 0 0 0 0 0 0 0 0 0 0 0 0 0 0 0 0 0 1 1 0 0
36 38 41 45 49 49 43 32 21 13 8 5 3 3 2 2 2 1 0 0 0 0 0 0 0 0 0 0 0 0 0 1 1 0 0 0 0 0 1 2 2 1 0
35 36 38 42 45 43 36 27 19 13 9 7 5 5 5 3 2 1 0 0 1 1 1 0 0 0 0 0 0 0 0 1 1 1 0 0 0 0 1 3 3 2 1
37 38 42 45 43 38 32 27 21 15 11 9 8 7 7 5 2 1 1 1 2 2 2 1 0 1 2 2 1 0 0 1 1 1 0 0 0 0 1 2 3 3 3
39 39 41 43 39 33 29 26 22 16 12 10 9 9 8 7 4 2 2 2 2 2 2 1 1 1 2 3 2 0 0 0 0 1 1 0 0 0 1 1 1 3 4
40 39 38 37 33 27 23 22 20 15 12 12 10 9 9 9 8 5 2 1 1 1 1 1 1 1 1 2 2 1 0 0 0 0 1 0 0 0 1 1 1 2 4
38 38 37 34 28 22 18 18 17 14 13 12 11 9 9 10 9 7 3 0 0 0 0 1 1 1 0 1 2 1 0 0 0 0 0 0 0 0 0 0 1 2 2
34 33 32 30 26 22 19 18 16 12 10 10 10 9 10 9 9 7 4 1 0 0 0 1 2 2 1 0 1 1 0 0 0 0 0 0 0 0 1 1 1 1 1
29 28 26 25 23 21 19 18 16 13 11 9 8 8 9 8 7 7 5 2 1 0 0 1 2 2 1 0 0 0 0 0 1 0 0 0 0 0 1 2 2 2 2
24 23 21 19 17 15 13 13 15 15 13 10 7 6 6 6 7 6 5 3 1 1 1 1 1 1 0 0 0 0 0 0 0 0 0 0 0 0 1 1 2 2 2
18 16 13 10 8 7 7 9 11 12 11 8 5 3 3 3 4 4 4 4 3 2 2 1 0 0 0 0 0 0 0 0 0 0 0 0 0 0 0 0 1 1 1
9 7 4 3 3 3 4 5 5 6 5 4 2 1 1 1 2 3 3 4 3 2 2 1 0 0 0 0 0 0 0 0 0 0 0 0 0 0 0 0 0 0 1
3 1 0 0 1 1 1 1 1 1 1 1 0 0 0 0 1 1 2 2 1 1 1 0 0 0 0 0 0 0 0 0 0 0 0 0 0 0 0 0 0 0 0
1 0 0 0 0 0 0 0 0 0 0 0 0 0 0 0 0 0 1 1 0 0 0 0 0 0 0 0 0 0 0 0 0 0 0 0 0 0 0 0 0 0 0
0 0 0 0 0 0 0 0 0 0 0 0 0 0 0 0 0 0 0 0 0 0 0 0 0 0 0 0 0 0 0 0 0 0 0 0 0 0 0 0 0 0 0
0 0 0 0 0 0 0 0 0 0 0 0 0 0 0 0 0 0 0 0 0 0 0 0 0 0 0 0 0 0 0 0 0 0 0 0 0 0 0 0 0 0 0

GEFSSE_con_prob3kmehi_066.txt.gz
EHI
15 26 23 8 0 0 2 6 10 11 9 5 3 2 1 0 0 0 0 0 0 0 0 0 0 0 0 0 0 0 0 0 0 0 0 0 0 0 0 0 0 0 0
23 32 25 8 1 0 3 8 13 14 11 9 7 6 3 1 0 0 0 0 0 0 0 0 0 0 0 0 0 0 0 0 0 0 0 0 0 0 0 0 0 0 0
34 37 26 8 1 0 3 9 13 14 13 13 13 11 7 3 1 0 0 0 0 0 0 0 0 0 0 0 0 0 0 0 0 0 0 0 0 0 0 0 0 0 0
37 38 26 10 2 1 4 9 12 13 14 15 15 13 8 4 1 0 0 0 0 0 0 0 0 0 0 0 0 0 0 0 0 0 0 0 0 0 0 0 0 0 0
29 32 30 16 4 1 4 9 12 14 15 15 13 10 7 3 1 0 0 0 0 0 0 0 0 0 0 0 0 0 0 0 0 0 0 0 0 0 0 0 0 0 0
14 23 32 22 6 1 3 7 11 12 13 12 10 8 6 4 2 1 1 1 0 0 0 0 0 0 0 0 0 0 0 0 0 0 0 0 0 0 0 0 0 0 0
4 16 31 25 9 3 4 6 8 8 8 8 9 8 6 5 3 1 1 1 0 0 0 0 0 0 0 0 0 0 0 0 0 0 0 0 0 0 0 0 0 0 0
1 12 26 23 11 6 5 5 5 6 6 7 9 9 7 5 3 1 0 0 0 0 0 0 0 0 0 0 0 0 0 0 0 0 0 0 0 0 0 0 0 0 0
1 7 16 15 9 7 5 4 4 4 6 7 9 9 7 4 2 0 0 0 0 0 0 0 0 0 0 0 0 0 0 0 0 0 0 3 6 4 0 0 0 0 0
2 4 6 7 6 4 3 4 5 6 8 9 10 10 7 4 1 0 1 1 1 0 0 0 0 0 0 0 0 0 0 0 0 0 1 9 16 9 1 0 0 0 0
9 6 4 5 5 3 4 8 9 9 11 12 13 14 11 6 3 1 4 7 4 0 0 0 0 0 0 0 0 0 0 0 0 0 6 21 25 12 1 0 0 0 0
22 16 9 8 8 7 8 12 12 12 14 14 16 20 19 15 10 6 9 13 7 2 1 1 0 0 0 1 2 1 1 1 1 1 14 34 31 11 1 0 0 0 1
32 25 19 18 19 17 15 15 16 19 21 20 24 32 34 31 26 19 17 16 12 8 7 7 6 3 2 2 2 1 2 3 4 5 24 43 32 9 1 1 1 1 1
37 32 31 35 41 39 33 28 26 28 31 34 39 45 47 47 42 35 30 23 19 17 17 16 14 8 5 4 2 1 2 4 6 9 26 41 29 8 3 3 3 2 1
41 39 42 52 59 60 55 46 35 34 40 47 52 52 51 52 48 43 40 32 24 23 22 20 16 12 8 5 2 1 1 3 4 6 19 30 23 9 5 5 6 5 4
42 43 48 55 61 63 60 49 38 36 44 52 54 52 50 49 46 43 41 34 27 24 22 17 13 11 9 4 2 1 1 1 1 2 8 15 14 7 5 5 7 8 9
41 43 45 46 49 52 49 42 36 37 43 48 49 47 44 41 40 39 37 32 28 25 19 13 10 10 8 4 1 0 1 2 2 1 3 6 7 4 2 3 6 8 11
41 43 42 38 38 40 38 34 31 32 35 40 40 37 33 31 31 33 32 28 28 25 17 10 7 7 6 3 1 1 3 5 4 2 1 3 5 2 2 3 4 5 7
45 46 44 38 33 30 28 25 23 24 27 29 30 27 24 22 23 26 26 23 22 20 14 8 5 5 4 2 1 1 3 5 4 2 1 2 4 3 2 4 3 2 2
44 44 41 34 27 24 21 18 16 16 18 19 18 17 16 16 18 20 20 16 15 12 9 7 5 4 3 1 1 1 2 2 2 1 0 1 3 2 1 2 3 2 0
31 29 24 20 16 15 14 12 9 8 9 9 9 8 8 10 14 15 14 12 11 9 7 6 5 3 2 2 2 2 1 0 1 1 0 0 1 1 0 1 3 2 1
15 12 8 7 6 6 5 4 3 2 2 2 2 3 3 5 8 9 9 8 7 6 5 5 4 2 1 1 2 2 1 0 0 0 0 0 1 1 1 1 2 2 2
5 4 2 3 2 1 0 0 0 0 0 0 0 0 1 1 3 4 5 5 5 4 2 3 3 3 1 1 1 1 1 0 0 0 0 0 1 1 1 0 1 1 1
1 1 2 2 1 0 0 0 0 1 0 0 0 0 0 0 0 2 3 5 5 3 1 1 1 2 3 2 2 1 1 0 0 0 0 0 0 0 0 0 0 0 1
0 1 2 2 1 0 0 0 0 0 0 0 0 0 0 0 0 1 3 4 5 4 3 3 3 3 3 2 1 1 1 0 0 0 0 0 0 0 0 0 0 1 2
0 0 1 1 1 1 0 0 0 0 0 0 0 0 0 0 0 1 2 4 5 6 7 7 6 4 3 1 1 1 1 1 0 0 0 0 0 0 0 0 0 1 2

GEFSSE_con_prob3kmehi_072.txt.gz
EHI
74 70 72 64 39 18 6 1 0 0 0 0 0 0 0 0 0 0 0 0 0 0 0 0 0 0 0 0 0 0 0 0 0 0 0 0 0 0 0 0 0 0 0
77 72 72 65 42 21 9 3 1 0 0 0 0 0 0 0 0 0 0 0 0 0 0 0 0 0 0 0 0 0 0 0 0 0 0 0 0 0 0 0 0 0 0
75 64 62 62 47 27 15 8 4 1 0 0 0 0 0 0 0 0 0 0 0 0 0 0 0 0 0 0 0 0 0 0 0 0 0 0 0 0 0 0 0 0 0
59 47 47 55 48 32 19 12 7 3 1 0 0 0 0 0 0 0 0 0 0 0 0 0 0 0 0 0 0 0 0 0 0 0 0 0 0 0 0 0 0 0 0
40 35 43 53 48 33 21 13 9 5 3 2 2 1 0 0 0 0 0 0 0 0 0 0 0 0 0 0 0 0 0 0 0 0 0 0 0 0 0 0 0 0 0
37 36 44 54 49 32 19 12 8 5 5 5 6 4 3 2 1 1 1 1 1 0 0 0 0 0 0 0 0 0 0 0 0 0 1 4 4 3 2 1 0 0 0
49 45 46 52 47 30 18 11 8 6 6 7 9 8 7 7 5 4 4 5 4 3 1 1 0 0 0 0 0 0 0 0 0 1 5 15 18 13 6 2 0 0 0
65 56 48 47 41 28 18 12 8 7 6 6 8 8 8 8 7 6 7 8 9 8 5 3 2 1 0 0 0 0 0 0 1 2 10 28 38 31 17 6 1 0 0
76 63 47 39 34 24 17 13 9 7 6 5 5 6 6 6 6 8 11 12 14 15 13 9 6 4 2 2 1 0 0 0 1 1 12 38 57 51 32 15 4 0 0
79 64 43 34 28 18 14 15 13 9 8 7 6 5 5 4 6 10 16 20 23 24 21 15 12 10 7 5 4 2 1 0 0 0 12 42 70 68 48 26 11 3 1
77 63 46 39 29 14 15 23 22 17 17 15 13 14 12 7 7 14 26 38 40 35 30 24 21 18 12 7 5 6 4 1 0 0 13 46 77 79 62 41 23 11 6
68 59 54 51 35 16 23 38 33 27 33 29 27 34 31 18 11 20 45 62 60 51 43 37 32 26 16 7 7 12 10 3 0 1 17 51 80 85 73 56 36 20 13
55 51 57 61 44 25 33 47 40 37 51 49 44 55 55 38 27 35 60 77 74 64 54 46 40 31 18 8 11 18 15 5 1 3 21 54 80 84 78 66 47 28 20
48 47 57 69 60 44 46 53 47 46 59 64 63 69 71 60 50 55 69 79 76 68 57 49 46 37 23 12 11 17 16 8 4 6 23 52 73 78 74 65 48 30 21
52 54 65 75 74 66 63 62 56 55 62 68 73 76 77 75 72 72 75 76 75 70 60 52 49 44 32 20 12 12 13 10 7 10 25 46 61 64 62 54 40 24 17
64 69 76 80 80 79 75 70 63 61 64 68 72 74 75 79 81 78 74 71 70 67 61 55 50 46 37 26 16 11 10 9 9 13 25 40 48 48 45 39 31 21 15
80 84 84 81 82 83 80 74 65 59 60 63 65 68 70 73 75 72 67 63 59 57 56 53 47 39 30 23 17 11 10 12 12 14 24 35 39 34 29 27 26 22 16
88 90 88 83 83 84 78 69 58 50 48 50 52 56 60 62 62 61 57 50 45 43 43 42 38 29 21 17 15 11 11 14 13 12 17 28 31 25 20 21 22 20 16
83 84 84 84 83 78 68 57 46 39 37 37 38 42 48 50 49 48 45 38 32 30 30 28 27 23 18 15 13 10 10 12 12 8 9 15 18 18 16 16 16 15 13
72 74 77 79 77 68 57 48 42 38 35 32 31 33 37 38 34 33 33 30 25 21 20 20 20 18 15 12 9 7 7 8 8 6 4 5 7 9 10 13 17 14 10
55 59 64 65 62 54 47 44 45 44 38 32 27 26 27 24 20 18 20 22 20 16 15 15 14 12 10 9 7 5 5 4 5 5 4 3 3 3 4 12 19 16 10
35 38 43 44 41 35 32 35 38 39 35 28 23 20 17 14 10 8 13 16 14 11 10 10 9 8 6 6 5 4 3 3 2 2 4 4 4 3 4 8 14 15 13
18 20 22 24 21 18 18 20 23 25 24 21 19 16 12 8 4 5 8 10 8 6 6 6 6 5 4 4 4 4 4 3 1 0 2 4 5 5 4 3 6 11 12
8 8 10 12 12 11 12 12 12 12 12 11 11 10 8 4 2 2 4 5 4 3 3 4 4 4 3 3 4 5 5 5 2 0 1 2 4 4 3 2 4 7 9
2 3 6 12 14 14 14 12 9 7 5 4 4 4 4 3 2 1 1 3 3 2 2 3 4 4 3 4 5 6 6 5 2 0 1 2 2 2 2 2 3 5 7
0 1 6 15 20 22 20 14 9 6 3 2 1 2 3 2 1 1 1 2 2 2 1 2 5 5 4 5 7 7 6 5 3 1 0 1 1 2 3 3 3 5 7

GEFSSE_con_prob3kmehi_078.txt.gz
EHI
14 34 68 89 86 68 50 35 22 14 9 5 1 0 1 1 1 2 2 1 0 0 0 0 0 0 0 0 0 0 0 0 1 1 1 0 0 0 0 0 0 0 0
29 43 70 90 88 71 52 35 22 14 8 4 1 0 0 0 0 1 1 1 0 0 0 0 0 0 0 0 0 0 0 0 0 0 0 0 0 0 0 0 0 0 0
52 53 69 88 90 75 56 38 24 14 8 4 2 0 0 0 0 0 0 0 0 0 0 0 0 0 0 0 0 0 0 0 0 0 0 0 0 1 1 0 0 0 0
62 57 65 86 92 80 63 46 28 16 9 4 1 0 0 0 0 0 0 0 0 0 0 0 0 0 0 0 0 0 0 0 0 0 0 0 0 1 2 1 0 0 0
59 56 66 86 94 86 72 54 35 22 14 6 2 0 0 0 0 0 0 0 0 0 0 0 0 0 0 0 0 0 0 0 0 0 0 0 0 1 2 1 0 0 0
59 58 70 88 95 90 78 61 43 31 23 14 6 2 1 1 1 0 0 0 0 0 0 0 0 0 0 0 0 0 0 0 0 0 0 0 0 2 5 5 2 1 0
62 62 73 87 93 89 79 65 52 40 31 22 14 7 3 3 3 3 3 2 2 2 2 1 0 0 0 0 0 0 0 0 0 0 0 0 1 5 10 10 7 4 2
56 59 67 78 85 85 78 68 57 47 37 29 22 14 9 7 6 7 8 6 6 6 5 2 1 0 0 0 0 0 0 0 0 0 0 0 3 9 15 15 12 8 6
40 46 54 62 69 71 69 63 56 47 40 34 27 21 15 11 9 10 11 9 9 10 8 4 2 2 1 1 0 0 0 0 0 0 0 1 5 11 17 18 15 11 9
25 32 40 46 49 49 48 46 43 40 36 30 25 22 17 12 8 9 11 10 10 12 11 7 5 5 4 2 1 0 0 0 0 0 0 1 6 11 17 19 18 14 12
20 22 28 33 34 32 28 25 24 25 23 19 16 16 14 8 5 6 8 9 11 15 15 12 9 8 7 4 1 0 0 0 0 0 0 1 5 12 19 24 23 18 16
22 19 18 21 24 23 19 14 13 13 12 9 8 8 7 4 2 3 4 7 12 17 18 17 16 15 14 9 5 3 2 1 0 0 0 2 6 14 25 31 29 23 19
24 19 15 14 16 17 16 13 11 9 7 6 5 4 4 4 2 1 2 6 12 20 24 26 27 26 24 18 11 7 5 2 1 0 1 3 9 17 28 34 31 25 23
35 29 23 18 15 15 16 17 15 11 9 9 8 7 9 8 5 3 4 8 16 27 35 36 35 32 28 22 15 9 5 3 1 0 1 3 10 18 28 33 32 26 24
52 48 43 37 31 28 29 30 28 23 20 19 18 16 17 16 13 11 10 12 19 30 37 36 31 28 24 20 15 9 5 2 0 0 0 2 8 16 25 31 30 25 23
63 61 59 56 50 46 46 45 40 36 33 30 27 23 21 20 19 18 15 13 16 22 26 25 21 18 17 16 12 7 5 3 1 0 0 0 4 11 20 26 26 23 21
63 61 61 61 56 51 48 44 39 37 34 29 25 21 20 20 19 17 13 10 11 14 16 15 13 12 12 11 8 5 5 4 2 1 0 0 1 6 13 18 20 20 18
57 57 57 55 51 44 37 31 28 26 23 18 17 17 17 17 15 11 8 6 7 10 11 10 10 10 10 9 6 4 3 4 3 1 0 0 0 3 8 12 13 15 15
48 49 48 44 38 31 24 18 16 14 11 10 11 11 11 10 8 6 4 4 4 5 7 8 8 8 7 6 5 2 2 3 3 2 1 0 0 1 4 6 7 8 9
34 34 33 28 21 16 13 9 7 6 5 5 5 5 4 3 2 2 1 1 1 2 4 5 5 4 4 4 3 2 1 2 3 2 1 0 0 0 1 1 2 3 4
20 20 18 14 9 6 4 4 3 3 2 2 1 1 1 0 0 0 0 0 0 1 1 2 2 1 2 2 2 1 0 1 2 1 0 0 0 0 0 0 1 1 1
9 9 8 6 3 1 1 2 2 2 1 1 0 0 0 0 0 0 0 0 0 0 0 0 0 0 1 1 1 0 0 0 0 0 0 0 0 0 0 0 0 0 0
3 2 2 1 0 0 0 1 1 1 1 0 0 0 0 0 0 0 0 0 0 0 0 0 0 0 0 0 0 0 0 0 0 0 0 0 0 0 0 0 0 0 0
2 1 0 0 0 0 0 0 0 0 0 0 0 0 0 0 0 0 0 0 0 0 0 0 0 0 0 0 0 0 0 0 0 0 0 0 0 0 0 0 0 0 0
1 0 0 0 0 0 0 0 0 0 0 0 0 0 0 0 0 0 0 0 0 0 0 0 0 0 0 0 0 0 0 0 0 0 0 0 0 0 0 0 0 0 0
0 0 0 0 0 0 0 0 0 0 0 0 0 0 0 0 0 0 0 0 0 0 0 0 0 0 0 0 0 0 0 0 0 0 0 0 0 0 0 0 0 0 0

GEFSSE_con_prob3kmehi_084.txt.gz
EHI
7 11 23 41 60 70 70 71 74 76 79 80 78 73 66 52 33 17 10 7 5 2 0 0 0 0 0 0 0 0 1 1 1 0 0 0 0 0 0 0 0 0 0
17 17 27 46 63 69 67 66 67 70 73 75 73 69 61 46 29 16 10 7 5 2 0 0 0 0 0 0 0 0 0 0 0 0 0 0 0 0 0 0 0 0 0
32 26 31 51 66 69 66 62 60 61 64 64 62 58 49 35 21 13 8 6 4 1 0 0 0 0 0 0 0 0 0 0 0 0 0 0 0 0 0 0 0 0 0
39 30 32 52 67 69 65 60 56 55 54 51 47 40 31 21 14 9 5 2 1 0 0 0 0 0 0 0 0 0 0 0 0 0 0 0 0 0 0 0 0 0 0
37 28 34 54 66 65 60 55 52 47 41 36 31 22 15 10 8 5 2 0 0 0 0 0 0 0 0 0 0 0 0 0 0 0 0 0 0 0 0 0 0 0 0
35 29 38 60 69 64 56 48 43 35 26 22 18 13 9 6 5 3 1 0 0 0 0 0 0 0 0 0 0 0 0 0 0 0 0 0 0 0 0 0 0 0 0
43 36 44 64 72 67 57 47 36 27 18 13 12 10 8 5 3 2 1 0 0 0 0 0 0 0 0 0 0 0 0 0 0 0 0 0 0 0 0 0 0 0 0
53 45 45 57 64 63 58 46 35 25 17 11 9 7 5 2 1 1 0 0 0 0 0 0 0 0 0 0 0 0 0 0 0 0 0 0 0 0 0 0 0 0 0
51 45 40 42 46 50 48 43 35 26 16 10 7 5 3 1 0 0 0 0 0 0 0 0 0 0 0 0 0 0 0 0 0 0 0 0 0 0 0 0 0 0 0
37 35 34 35 36 37 37 36 33 24 16 11 7 4 2 0 0 0 0 0 0 0 0 0 0 0 0 0 0 0 0 0 0 0 0 0 0 0 0 0 0 0 0
20 22 28 34 35 34 32 31 28 23 16 11 7 4 1 0 0 0 1 1 1 0 0 0 0 1 1 1 1 0 0 0 0 0 0 0 0 0 0 0 1 1 0
11 13 20 28 33 32 29 26 24 20 14 8 5 4 2 1 1 0 1 2 1 1 1 0 1 2 4 6 4 2 1 1 1 2 1 1 1 0 0 1 2 3 2
10 11 14 19 25 26 21 20 21 18 13 7 5 4 4 3 2 2 1 2 2 2 2 2 2 4 6 8 7 4 2 2 3 5 4 2 1 0 0 1 3 5 5
14 14 14 15 17 17 14 14 16 15 11 8 6 5 5 5 5 6 6 5 5 4 3 3 3 3 4 5 6 5 3 2 4 5 4 2 1 0 0 0 2 5 6
19 18 17 16 15 12 10 10 10 8 6 6 7 6 6 8 9 10 10 9 7 6 5 4 3 2 2 2 4 5 4 3 3 3 3 2 1 0 0 0 1 3 4
26 23 19 18 15 11 10 8 6 4 3 4 6 5 5 8 9 9 10 9 7 7 7 6 5 3 3 3 4 4 4 3 2 2 2 2 1 0 0 1 2 3 3
30 28 23 18 14 11 8 6 5 4 2 2 3 3 3 5 4 5 6 6 4 5 6 6 5 5 3 3 3 3 3 3 3 1 1 1 1 0 0 1 3 3 2
25 27 24 18 15 12 6 3 3 2 1 1 1 1 2 2 1 1 3 3 2 1 2 3 3 4 3 2 1 1 1 1 1 1 0 0 0 0 0 1 4 4 2
15 17 17 14 11 8 4 1 1 0 0 0 0 0 1 1 1 0 1 1 0 0 0 1 1 2 3 2 0 0 0 0 0 0 0 0 0 0 0 1 4 5 4
6 7 7 7 5 3 2 1 0 0 0 0 0 0 0 0 0 0 0 0 0 0 0 0 0 1 2 1 0 0 0 0 0 0 0 0 0 0 0 0 2 4 4
2 2 2 2 1 0 0 0 0 0 0 0 0 0 0 0 0 0 0 0 0 0 0 0 0 0 0 0 0 0 0 0 1 1 1 2 1 0 0 0 1 2 2
1 0 0 0 0 0 0 0 0 0 0 0 0 0 0 0 0 0 0 0 0 0 0 0 0 0 0 0 0 0 0 0 1 2 2 2 1 0 0 0 0 1 2
0 0 0 0 0 0 0 0 0 0 0 0 0 0 0 0 0 0 0 0 0 0 0 0 0 0 0 0 0 0 0 0 1 1 1 1 1 0 0 0 0 1 1
0 0 0 0 0 0 0 0 0 0 0 0 0 0 0 0 0 0 0 0 0 0 0 0 0 0 0 0 0 0 0 0 0 0 0 0 0 0 0 0 0 0 0
0 0 0 0 0 0 0 0 0 0 0 0 0 0 0 0 0 0 0 0 0 0 0 0 0 0 0 0 0 0 0 0 0 0 0 0 0 0 0 0 1 0 0
0 0 0 0 0 0 0 0 0 0 0 0 0 0 0 0 0 0 0 0 0 0 0 0 0 0 0 0 0 0 0 0 0 0 0 0 0 0 0 0 1 0 0